カタログに戻る

STARLINK-11705

運用中通信VLEO
NORAD 63758·PAYLOAD·🇺🇸 United States

打ち上げ Apr 29, 2025 から Cape Canaveral Space Force Station

Loading…

次のパス (今後24時間)

TLE

最新Source: CelesTrak SupGP

元期: Sep 15, 2026, 03:28 UTC

1 63758C 25089H   26258.14493056 -.00037573  00000+0 -29184-3 0  2589
2 63758  43.0006 230.4331 0001485 267.6917 324.0733 15.70856580    14

AllMySatでSTARLINK-11705をリアルタイム追跡

Download on the App Store